DW1254 Weather Reports


Display with metric or nautical units.
time (UTC)temp
F
wind
direction
speed
MPH
gust
MPH
rain 1hr
in
rain 24hr
in
rain mn
in
humidity
%
barometer
mb
20181015213806 54 56 4.0 10.0 0.10 0.10 0.10 94 1015.6
20181015212906 54 34 5.0 8.0 0.10 0.10 0.10 94 1015.5
20181015212006 55 38 7.0 11.0 0.09 0.09 0.10 92 1015.5
20181015211106 57 121 1.0 5.0 0.09 0.09 0.09 91 1015.4
20181015210206 59 136 2.0 6.0 0.08 0.08 0.09 83 1015.3
20181015205306 62 144 4.0 8.0 0.00 0.00 0.01 74 1015.7
20181015204406 63 95 3.0 8.0 0.00 0.00 0.00 67 1015.3
20181015203506 64 117 2.0 1.0 0.00 0.00 0.00 65 1015.4
20181015202606 64 135 3.0 9.0 0.00 0.00 0.00 66 1015.7
20181015201706 63 171 5.0 6.0 0.00 0.00 0.00 68 1015.9
20181015200806 62 118 5.0 14.0 0.00 0.00 0.00 70 1016.0
20181015195906 62 120 4.0 5.0 0.00 0.00 0.00 69 1016.0
20181015195006 63 137 4.0 9.0 0.00 0.00 0.00 68 1016.2
20181015194106 63 163 4.0 5.0 0.00 0.00 0.00 67 1016.4
20181015193206 63 134 4.0 6.0 0.00 0.00 0.00 68 1016.6
20181015192306 63 138 5.0 6.0 0.00 0.00 0.00 67 1016.7
20181015191406 63 134 4.0 11.0 0.00 0.00 0.00 66 1016.6
20181015190506 63 120 5.0 9.0 0.00 0.00 0.00 64 1016.7
20181015185605 64 113 6.0 12.0 0.00 0.00 0.00 62 1016.8
20181015184705 64 106 5.0 9.0 0.00 0.00 0.00 63 1016.9
20181015183806 64 120 6.0 10.0 0.00 0.00 0.00 62 1017.0
20181015182906 64 124 6.0 9.0 0.00 0.00 0.00 65 1017.3
20181015182006 63 83 3.0 10.0 0.00 0.00 0.00 65 1017.2
20181015181105 62 138 4.0 7.0 0.00 0.00 0.00 68 1017.4
20181015180205 62 96 6.0 11.0 0.00 0.00 0.00 70 1017.4
20181015175306 62 118 7.0 14.0 0.00 0.00 0.00 69 1017.6
20181015174405 63 123 5.0 12.0 0.00 0.00 0.00 66 1017.3
20181015173505 63 99 6.0 6.0 0.00 0.00 0.00 66 1017.4
20181015172605 63 112 6.0 9.0 0.00 0.00 0.00 67 1017.4
20181015171705 62 98 3.0 9.0 0.00 0.00 0.00 72 1017.6
20181015170805 61 74 3.0 9.0 0.00 0.00 0.00 72 1017.5
20181015165905 60 88 1.0 3.0 0.00 0.00 0.00 75 1017.7
20181015165005 60 0 0.0 3.0 0.00 0.00 0.00 73 1017.7
20181015164105 60 0 0.0 4.0 0.00 0.00 0.00 74 1017.7
20181015163205 60 0 2.0 0.0 0.00 0.00 0.00 74 1017.9
20181015162305 60 65 3.0 5.0 0.00 0.00 0.00 75 1017.9
20181015161405 60 102 3.0 6.0 0.00 0.00 0.00 76 1017.9
20181015160505 60 101 1.0 3.0 0.00 0.00 0.00 76 1017.9
20181015155605 60 109 1.0 5.0 0.00 0.00 0.00 75 1017.9
20181015154705 59 92 2.0 5.0 0.00 0.00 0.00 78 1018.0
20181015153805 58 135 1.0 3.0 0.00 0.00 0.00 81 1018.2
20181015152905 58 225 1.0 4.0 0.00 0.00 0.00 85 1018.1
20181015152005 57 225 1.0 5.0 0.00 0.00 0.00 87 1018.3
20181015151105 56 246 1.0 3.0 0.00 0.00 0.00 89 1018.2
20181015150205 54 0 0.0 3.0 0.00 0.00 0.00 93 1017.7
20181015145305 53 0 0.0 0.0 0.00 0.00 0.00 97 1017.6
20181015144405 52 0 0.0 0.0 0.00 0.00 0.00 98 1017.6
20181015143505 51 173 1.0 3.0 0.00 0.00 0.00 99 1017.5
20181015142605 50 164 1.0 3.0 0.00 0.00 0.00 98 1017.4
20181015141705 48 0 0.0 1.0 0.00 0.00 0.00 99 1017.2
20181015140805 48 0 0.0 0.0 0.00 0.00 0.00 99 1017.0
20181015135905 48 0 0.0 0.0 0.00 0.00 0.00 99 1017.0
20181015135005 48 0 0.0 0.0 0.00 0.00 0.00 99 1016.9
20181015134105 48 0 0.0 0.0 0.00 0.00 0.00 98 1016.7
20181015133205 48 0 0.0 0.0 0.00 0.00 0.00 99 1016.8
20181015132305 48 0 0.0 0.0 0.00 0.00 0.00 98 1016.7
20181015131404 48 0 0.0 1.0 0.00 0.00 0.00 98 1016.7
20181015130504 48 0 0.0 0.0 0.00 0.00 0.00 97 1016.8
20181015125604 49 0 0.0 0.0 0.00 0.00 0.00 97 1016.7
20181015124704 49 0 0.0 0.0 0.00 0.00 0.00 97 1016.6
20181015123804 50 0 0.0 0.0 0.00 0.00 0.00 96 1017.0
20181015122904 50 0 0.0 0.0 0.00 0.00 0.00 97 1016.8
20181015122005 50 0 0.0 0.0 0.00 0.00 0.00 97 1016.8
20181015121105 51 0 0.0 0.0 0.00 0.00 0.00 96 1016.8
20181015120205 51 0 0.0 0.0 0.00 0.00 0.00 97 1016.8
20181015115304 50 0 0.0 0.0 0.00 0.00 0.00 97 1016.8
20181015114404 51 0 0.0 0.0 0.00 0.00 0.00 96 1016.7
20181015113504 51 0 0.0 0.0 0.00 0.00 0.00 95 1016.7
20181015112604 51 0 0.0 0.0 0.00 0.00 0.00 95 1016.7
20181015111704 51 0 0.0 0.0 0.00 0.00 0.00 95 1016.8
20181015110804 51 0 0.0 0.0 0.00 0.00 0.00 95 1016.8
20181015105904 51 0 0.0 0.0 0.00 0.00 0.00 94 1016.8
20181015105004 51 0 0.0 0.0 0.00 0.00 0.00 93 1016.7
20181015104104 52 0 1.0 0.0 0.00 0.00 0.00 93 1016.5
20181015103204 51 328 1.0 6.0 0.00 0.00 0.00 95 1016.5
20181015102305 50 0 0.0 0.0 0.00 0.00 0.00 94 1016.5
20181015101404 51 0 0.0 0.0 0.00 0.00 0.00 95 1016.4
20181015100504 50 0 0.0 1.0 0.00 0.00 0.00 96 1016.4
20181015095604 49 0 0.0 2.0 0.00 0.00 0.00 98 1016.4
20181015094704 49 0 0.0 0.0 0.00 0.00 0.00 96 1016.5
20181015093804 49 0 0.0 0.0 0.00 0.00 0.00 96 1016.5
20181015092904 49 0 0.0 2.0 0.00 0.00 0.00 95 1016.6
20181015092004 50 0 0.0 1.0 0.00 0.00 0.00 96 1016.8
20181015091104 50 0 0.0 2.0 0.00 0.00 0.00 94 1016.7
20181015090204 50 0 0.0 0.0 0.00 0.00 0.00 93 1016.7
20181015085305 52 0 2.0 0.0 0.00 0.00 0.00 92 1016.8
20181015084404 52 305 3.0 6.0 0.00 0.00 0.00 92 1016.8
20181015083504 52 311 2.0 6.0 0.00 0.00 0.00 92 1016.8
20181015082604 52 324 1.0 4.0 0.00 0.00 0.00 91 1016.8
20181015081703 52 313 2.0 5.0 0.00 0.00 0.00 91 1016.9
20181015080804 52 324 3.0 4.0 0.00 0.00 0.00 91 1016.8
20181015075903 52 325 3.0 6.0 0.00 0.00 0.00 92 1016.9
20181015075004 52 325 3.0 6.0 0.00 0.00 0.00 93 1016.9
20181015074103 52 328 4.0 7.0 0.00 0.00 0.00 93 1016.9
20181015073204 52 330 3.0 9.0 0.00 0.00 0.00 94 1016.9
20181015072305 52 330 3.0 7.0 0.00 0.00 0.00 94 1016.9
20181015071404 52 331 3.0 6.0 0.00 0.00 0.00 94 1016.9
20181015070503 52 335 1.0 6.0 0.00 0.00 0.00 94 1016.8
20181015065603 52 349 1.0 3.0 0.00 0.00 0.00 92 1016.9
20181015064703 53 318 1.0 5.0 0.00 0.00 0.00 91 1016.8
20181015063803 53 288 1.0 1.0 0.00 0.00 0.00 91 1016.9
20181015062903 53 285 1.0 3.0 0.00 0.00 0.00 91 1016.8
20181015062003 53 283 1.0 4.0 0.00 0.00 0.00 92 1016.9
20181015061103 52 0 0.0 0.0 0.00 0.00 0.00 94 1016.9
20181015060204 52 0 0.0 0.0 0.00 0.00 0.00 95 1017.0
20181015055303 52 0 0.0 0.0 0.00 0.00 0.00 94 1016.9
20181015054403 52 0 0.0 0.0 0.00 0.00 0.00 92 1016.9
20181015053503 52 0 0.0 0.0 0.00 0.00 0.00 91 1016.9
20181015052604 52 0 0.0 0.0 0.00 0.00 0.00 91 1016.8
20181015051703 53 0 0.0 0.0 0.00 0.00 0.00 90 1016.9
20181015050803 53 0 0.0 0.0 0.00 0.00 0.00 89 1016.9
20181015045903 54 0 0.0 0.0 0.00 0.00 0.00 89 1016.8
20181015045003 54 0 0.0 0.0 0.00 0.00 0.00 88 1016.7
20181015044103 55 0 0.0 0.0 0.00 0.00 0.00 87 1016.7
20181015043203 55 0 0.0 0.0 0.00 0.00 0.00 84 1016.5
20181015042303 55 0 0.0 0.0 0.00 0.00 0.00 84 1016.4
20181015041403 56 321 1.0 4.0 0.00 0.00 0.00 83 1016.4
20181015040503 56 314 1.0 3.0 0.00 0.00 0.00 83 1016.3
20181015035603 56 317 1.0 4.0 0.00 0.00 0.00 81 1016.4
20181015034703 56 326 1.0 3.0 0.00 0.00 0.00 81 1016.3
20181015033803 55 318 2.0 5.0 0.00 0.00 0.00 83 1016.2
20181015032903 54 325 1.0 4.0 0.00 0.00 0.00 85 1016.0
20181015032003 54 340 1.0 2.0 0.00 0.00 0.00 85 1016.0
20181015031103 55 337 2.0 3.0 0.00 0.00 0.00 83 1016.0
20181015030203 56 332 3.0 7.0 0.00 0.00 0.00 81 1015.8
20181015025303 56 324 2.0 4.0 0.00 0.00 0.00 81 1015.7
20181015024403 56 319 3.0 6.0 0.00 0.00 0.00 82 1015.7
20181015023502 55 322 3.0 6.0 0.00 0.00 0.00 83 1015.7
20181015022602 55 330 2.0 6.0 0.00 0.00 0.00 83 1015.7
20181015021703 55 332 3.0 5.0 0.00 0.01 0.00 82 1015.6
20181015020802 55 333 3.0 6.0 0.00 0.01 0.00 82 1015.6
20181015015902 56 333 3.0 6.0 0.00 0.01 0.00 81 1015.4
20181015015003 56 331 3.0 6.0 0.00 0.05 0.00 80 1015.3
20181015014103 56 327 3.0 6.0 0.00 0.05 0.00 80 1015.1
20181015013203 57 327 3.0 7.0 0.00 0.05 0.00 79 1015.0
20181015012302 57 320 3.0 6.0 0.00 0.06 0.00 77 1014.9
20181015011402 58 315 4.0 7.0 0.00 0.08 0.00 75 1014.8
20181015010502 58 313 3.0 9.0 0.00 0.09 0.00 73 1014.6
20181015005602 59 0 0.0 4.0 0.00 0.09 0.00 72 1014.5
20181015004702 59 0 0.0 4.0 0.00 0.10 0.00 67 1014.4
20181015003802 60 0 0.0 0.0 0.00 0.10 0.00 67 1014.3
20181015002902 62 235 1.0 3.0 0.00 0.10 0.00 63 1014.5
20181015002002 64 220 1.0 5.0 0.00 0.10 0.00 57 1014.3
20181015001102 65 275 1.0 5.0 0.00 0.10 0.00 56 1014.2
20181015000202 66 270 1.0 4.0 0.00 0.10 0.00 54 1014.4
20181014235302 66 0 0.0 3.0 0.00 0.10 0.00 53 1014.4
20181014234402 66 0 0.0 2.0 0.00 0.10 0.00 53 1014.5
20181014233502 66 0 0.0 3.0 0.00 0.10 0.00 53 1014.5
20181014232603 65 0 1.0 0.0 0.00 0.10 0.00 54 1014.4
20181014231702 65 0 0.0 2.0 0.00 0.10 0.00 54 1014.3
20181014230802 64 0 0.0 4.0 0.00 0.10 0.00 56 1014.1
20181014225902 63 243 1.0 5.0 0.00 0.10 0.00 56 1014.4
20181014225002 64 272 2.0 5.0 0.00 0.10 0.00 56 1014.3
20181014224102 64 248 1.0 1.0 0.00 0.10 0.00 56 1014.3
20181014223202 64 261 2.0 8.0 0.00 0.10 0.00 55 1014.4
20181014222302 64 0 0.0 0.0 0.00 0.10 0.00 54 1014.4
20181014221402 64 293 1.0 5.0 0.00 0.10 0.00 55 1014.3
20181014220502 64 0 0.0 4.0 0.00 0.10 0.00 54 1014.4
20181014215602 64 196 3.0 3.0 0.00 0.10 0.00 53 1014.3
20181014214702 66 232 2.0 8.0 0.00 0.10 0.00 51 1014.3